Wind_Speed
28 29 29 30 31 31 30 30 28 29 34 35 34 36 41 46 48 48 48 44 42 40 35 35 35 32 31 31 31 33 32 31 30 28 26 26 28 29 29 29 27 21
27 28 29 29 29 30 29 30 29 29 33 36 35 37 41 44 46 47 50 50 50 47 43 42 41 35 30 31 34 34 32 29 29 30 28 28 30 30 29 30 28 24
26 27 30 30 30 30 29 30 30 29 30 31 32 36 40 41 44 46 47 49 50 49 48 48 47 41 36 38 39 32 26 27 28 28 28 28 29 28 25 24 24 24
25 26 29 30 30 30 28 29 30 29 30 30 30 36 41 39 39 42 44 46 47 47 46 46 48 47 44 45 41 29 25 28 27 26 26 26 29 28 24 23 22 23
22 25 27 28 29 29 28 29 31 30 30 29 30 34 39 37 36 39 42 43 44 44 45 45 46 47 46 47 41 29 26 26 25 28 28 28 31 32 29 28 25 23
21 23 25 26 27 28 29 30 30 30 29 30 33 35 36 36 37 38 40 41 42 43 45 45 45 45 46 46 42 31 27 28 29 31 31 30 32 33 34 32 28 23
19 21 23 25 26 27 29 30 29 28 28 28 32 37 38 37 38 39 40 42 43 44 46 45 45 45 45 46 44 34 29 34 37 35 33 31 29 31 33 30 25 22
18 19 21 23 25 26 27 28 28 27 27 27 30 36 38 39 40 40 40 42 43 45 46 46 46 47 46 47 46 40 35 39 42 39 35 29 25 28 31 26 22 23
18 17 19 21 23 25 26 27 27 25 27 31 34 35 37 39 40 41 41 42 44 45 45 45 46 47 47 48 48 47 44 44 44 43 38 32 30 34 34 29 25 23
19 17 17 19 21 23 24 25 26 25 27 33 35 35 36 38 39 40 41 43 44 44 44 44 45 47 48 49 50 49 48 47 45 45 43 40 39 40 37 35 31 26
19 18 17 18 20 21 22 23 24 25 29 33 34 35 36 38 38 39 41 43 44 44 43 44 45 47 48 49 50 47 45 46 47 45 44 43 43 42 40 39 36 32
18 19 18 18 18 19 20 22 23 24 29 32 33 34 35 37 39 40 40 42 43 43 44 45 46 47 48 49 49 46 42 43 45 45 45 44 44 43 42 40 38 36
18 18 19 19 18 18 18 19 21 24 28 31 32 33 35 36 39 40 40 41 42 43 44 45 45 46 47 47 48 46 43 43 45 45 44 44 43 43 41 40 39 37
18 17 17 18 18 18 18 18 19 22 26 29 31 32 34 36 38 40 40 40 40 41 43 44 44 44 45 46 47 46 45 44 45 46 44 42 40 40 39 38 37 37
20 18 16 17 17 17 17 18 18 19 23 27 29 31 33 35 37 39 40 39 39 39 40 42 43 44 44 45 46 46 45 44 44 45 43 41 38 37 37 38 38 37
22 20 18 16 16 17 17 17 18 19 22 25 27 29 31 33 34 36 37 38 37 37 38 39 42 43 43 43 44 44 44 43 41 41 42 41 38 35 33 34 36 35
23 21 20 17 15 16 17 17 17 18 20 22 24 26 29 30 31 33 34 35 35 36 36 38 40 41 40 41 42 42 42 42 41 41 41 41 40 36 32 32 33 30
22 22 21 19 16 14 16 17 17 17 18 19 21 24 26 28 29 31 32 33 34 35 36 37 38 38 37 38 40 41 41 41 42 42 41 40 39 38 36 33 31 28
21 20 20 20 19 15 13 15 17 16 16 18 20 22 24 27 29 30 31 32 33 33 34 36 36 36 36 37 40 41 41 40 41 42 41 39 38 38 36 33 31 30
21 20 20 20 21 18 13 12 15 16 15 17 18 19 20 22 25 28 29 30 32 32 33 35 35 36 36 37 39 41 41 40 40 40 40 39 38 38 37 35 34 35
22 21 21 20 20 19 14 10 11 14 16 16 17 17 16 17 21 26 27 29 31 31 31 33 35 35 36 37 39 40 42 40 37 38 39 38 37 38 39 38 37 37
22 22 21 21 20 19 15 11 9 10 13 15 15 16 16 16 17 21 23 24 27 27 26 27 31 34 35 37 39 39 41 41 35 34 35 34 35 37 38 38 38 37
22 22 22 21 20 18 16 14 11 9 10 12 14 15 16 16 17 17 18 20 21 23 22 20 26 33 35 36 38 39 41 40 35 31 30 30 32 35 37 36 36 36
22 21 22 22 21 19 17 16 14 11 9 9 11 14 15 17 17 17 17 18 20 22 23 20 23 31 35 35 37 40 41 39 34 29 27 27 29 32 33 33 34 35
22 21 21 21 20 19 17 17 15 12 10 9 10 12 14 16 17 16 16 17 19 22 24 24 25 30 34 35 37 40 41 38 33 28 25 26 28 29 29 30 31 33
21 20 21 21 20 19 18 17 15 12 11 10 10 11 12 14 17 17 17 18 19 22 24 26 26 28 32 34 36 40 42 37 29 27 27 27 27 28 28 28 29 30
Wind_Direction
242 237 235 233 232 231 229 227 224 220 220 221 220 221 222 223 222 219 217 217 216 214 210 208 207 206 207 207 209 212 215 215 214 212 213 215 216 218 220 219 218 218
246 241 237 236 234 232 229 228 227 224 223 223 222 224 226 226 224 222 221 220 220 219 216 214 211 205 201 205 212 217 217 216 215 214 215 216 217 219 222 221 220 220
249 243 238 236 235 234 231 229 229 228 225 223 223 225 227 227 226 225 223 222 221 220 219 218 215 211 209 214 218 217 213 213 213 213 214 215 216 218 220 219 218 219
255 247 241 238 236 236 233 230 230 231 230 227 225 227 229 230 228 226 224 223 221 220 219 219 218 216 216 217 216 212 211 213 212 210 212 213 215 216 216 214 214 215
264 253 246 242 238 235 233 232 232 232 231 227 226 228 228 228 227 224 223 222 221 220 220 220 219 217 215 214 211 209 209 210 209 210 212 214 215 217 217 214 214 213
274 261 251 244 240 235 233 234 234 232 229 226 227 229 226 223 222 220 219 220 219 219 219 220 218 217 215 212 210 207 205 206 208 209 212 214 214 215 214 213 213 212
284 270 258 248 242 237 234 235 234 231 229 227 228 229 225 221 220 219 219 219 219 218 219 219 217 216 215 212 210 207 205 208 210 209 210 211 209 208 209 210 210 210
295 278 265 254 244 239 236 234 233 231 229 226 227 228 225 222 221 221 220 220 220 220 220 219 217 216 215 214 211 209 209 211 212 210 208 204 201 203 206 207 206 207
305 289 273 261 250 243 238 235 232 230 228 228 229 228 225 223 221 221 220 220 221 221 219 217 216 215 216 215 214 214 214 213 212 211 207 203 203 207 208 208 206 205
317 304 284 269 257 249 242 237 233 230 230 230 229 227 225 222 221 220 219 219 219 218 217 216 215 216 216 217 217 216 215 213 211 210 209 209 210 210 210 209 207 204
330 320 303 282 267 256 248 241 236 232 232 232 228 226 225 221 219 219 218 218 217 216 215 215 216 217 217 217 217 216 214 213 211 210 210 212 213 212 212 211 210 209
337 332 321 304 284 267 256 246 239 235 234 231 227 226 224 221 219 218 217 217 217 216 216 216 218 219 218 217 215 213 211 212 212 211 212 212 213 214 213 213 213 214
337 335 328 319 303 285 270 255 244 239 235 231 228 226 223 221 220 218 217 217 217 217 217 217 217 218 218 216 214 211 209 210 210 211 212 212 212 213 213 213 214 215
334 336 333 326 318 303 286 270 254 244 237 232 229 225 222 221 220 220 219 218 218 218 218 217 216 216 215 213 212 210 208 209 209 210 210 209 209 210 211 212 213 214
332 335 339 333 327 318 302 285 268 252 242 236 230 225 223 223 222 221 220 219 219 219 218 217 216 215 214 212 210 209 208 207 208 208 207 205 203 206 208 210 212 214
337 335 340 341 335 329 318 302 285 266 251 241 233 228 225 224 223 222 221 220 219 218 218 217 217 216 216 214 211 210 207 206 205 205 203 201 199 199 201 205 208 211
339 336 338 344 341 333 327 318 302 282 262 247 239 233 228 225 224 222 222 221 219 219 217 217 218 218 216 214 212 209 206 204 203 202 201 200 199 197 197 200 204 206
337 334 333 338 342 337 330 326 316 298 277 258 245 238 232 226 224 223 222 221 220 219 218 217 218 217 215 213 211 208 206 205 203 201 200 199 199 200 199 199 200 202
332 331 328 331 338 338 330 327 323 310 289 269 254 245 237 230 226 225 223 221 220 219 219 219 218 216 215 214 211 208 206 204 203 202 201 200 200 201 200 198 198 199
328 330 327 325 331 335 330 323 324 319 303 283 266 253 242 234 230 227 224 222 220 219 219 219 218 217 217 216 213 209 206 204 204 204 203 202 202 201 200 200 200 200
326 328 326 324 326 329 328 324 322 322 315 301 281 261 248 241 235 230 226 223 221 220 220 220 220 219 219 217 214 210 207 204 204 205 204 204 203 203 203 203 203 203
324 324 324 325 325 324 324 326 323 319 318 314 299 275 259 250 242 236 230 226 223 220 218 219 220 220 220 218 215 210 206 203 202 203 202 202 203 204 205 204 204 204
322 321 320 323 325 324 322 323 322 316 313 316 312 294 273 258 249 241 235 230 224 220 217 216 218 220 220 219 215 210 205 201 200 199 198 198 200 201 202 203 204 205
319 318 316 319 322 323 323 322 319 316 309 310 311 302 287 271 259 248 241 235 228 224 220 217 219 221 220 218 214 210 204 199 198 197 195 195 197 198 200 201 203 206
316 314 312 315 318 320 323 322 318 314 310 307 306 302 295 285 272 259 248 240 233 229 224 220 220 222 220 216 213 208 202 197 195 194 191 192 194 196 198 200 203 207
315 313 310 311 316 319 323 323 320 316 314 312 306 301 299 293 281 269 258 248 239 233 228 223 221 222 220 215 211 206 200 195 193 192 190 190 192 193 194 196 200 205
Height
706 706 706 706 706 707 707 708 708 708 708 710 711 712 713 715 717 720 722 725 727 730 732 734 736 740 744 748 752 753 755 758 760 762 764 766 767 769 772 773 774 776
702 702 702 702 702 702 703 704 705 704 703 705 706 708 710 712 714 716 718 721 723 726 728 730 731 735 738 741 745 748 751 754 756 757 760 761 763 766 768 770 771 774
699 699 698 697 697 698 699 700 701 700 700 701 703 705 706 708 710 713 715 717 720 722 724 726 727 730 732 734 739 743 747 749 751 753 756 758 760 762 764 767 769 771
696 695 694 693 693 694 696 696 697 697 697 698 699 700 702 705 708 709 712 714 717 719 721 723 724 725 727 730 734 739 743 745 747 749 752 754 756 758 760 763 766 767
693 692 691 690 689 690 692 691 691 692 693 694 695 696 699 702 704 705 708 710 712 715 717 719 721 722 724 726 729 733 737 740 742 744 747 749 751 753 756 760 762 764
691 689 688 687 686 686 687 686 687 688 689 690 691 693 695 697 699 701 703 706 708 711 712 715 717 720 721 723 725 728 731 733 735 739 741 743 746 749 752 756 758 760
688 687 686 684 683 683 682 682 684 685 686 687 688 689 690 692 694 696 698 701 704 706 707 710 713 716 718 720 721 723 726 727 729 733 736 738 742 745 748 752 754 756
686 684 683 682 680 679 678 678 680 680 682 683 684 685 686 688 690 692 695 697 699 701 703 705 707 710 714 716 717 719 721 722 725 728 731 735 738 741 744 747 750 752
685 682 681 680 678 677 675 675 676 677 678 679 680 682 683 685 686 688 691 693 694 697 698 700 703 705 708 711 713 714 716 718 721 723 726 729 732 736 740 743 746 748
684 681 680 678 676 675 673 673 673 673 674 675 677 678 679 681 683 684 687 688 690 692 694 696 698 700 702 704 707 709 712 714 716 719 721 724 727 731 735 738 741 744
683 681 679 677 675 673 671 671 670 670 670 671 673 675 676 678 680 681 683 684 684 686 689 691 693 695 697 699 702 705 708 710 712 714 717 720 723 727 730 733 736 739
682 680 678 676 674 672 670 669 668 667 667 668 670 672 673 675 676 678 679 680 680 682 684 686 688 691 693 695 698 702 704 707 709 711 714 716 720 723 726 729 732 736
681 679 678 676 674 671 669 668 666 665 665 665 667 668 670 671 673 674 676 676 677 678 679 682 684 687 690 692 695 697 700 702 705 708 711 713 716 720 723 726 729 732
681 678 676 675 673 671 669 667 665 664 663 663 664 665 666 668 669 671 673 674 675 675 676 678 681 683 685 688 691 693 695 697 701 704 707 710 713 717 720 723 726 729
681 678 675 673 672 670 668 666 664 663 662 661 662 662 663 665 666 668 669 670 672 673 674 676 677 678 680 683 686 689 691 694 697 700 703 706 710 713 717 720 723 725
681 678 674 672 670 669 668 666 664 662 661 660 660 660 661 662 664 665 666 667 669 670 672 673 673 674 677 680 683 685 689 692 694 697 699 702 705 709 713 716 719 722
681 678 674 671 669 668 667 666 664 662 660 659 659 658 659 660 661 663 664 665 667 668 669 670 671 672 675 678 680 683 686 689 691 694 696 698 701 704 708 712 715 719
682 678 675 672 668 667 666 665 664 662 660 659 658 657 657 658 659 660 661 663 664 665 666 667 668 671 673 676 678 681 684 686 688 690 693 695 698 700 704 707 711 715
683 679 676 672 668 666 664 663 663 662 660 659 657 657 656 656 657 657 658 660 661 663 664 665 667 669 671 673 675 678 681 683 686 688 690 692 694 697 700 704 707 710
685 680 677 673 669 666 663 661 661 661 660 659 657 657 656 655 655 655 656 657 658 660 661 663 664 666 668 670 672 675 678 681 683 685 687 689 691 694 697 699 702 705
686 682 678 674 670 666 663 660 659 659 659 658 657 656 655 654 654 654 654 655 656 658 659 660 661 663 665 667 669 672 675 678 681 683 685 687 689 691 693 695 698 701
687 683 679 675 671 667 663 660 658 657 657 657 656 655 654 654 653 653 653 653 654 655 656 657 659 660 663 664 666 669 672 675 677 679 682 685 686 689 691 693 695 698
688 685 680 676 672 667 664 660 657 655 655 655 655 655 654 653 652 651 651 652 652 653 654 655 656 657 660 662 664 666 669 671 674 676 679 681 683 686 688 690 692 695
689 686 682 677 673 668 664 660 657 655 653 653 653 653 653 652 651 650 650 650 650 650 651 652 653 654 656 659 661 663 666 668 671 673 676 678 680 683 686 688 690 692
690 687 683 678 674 668 664 660 657 654 652 651 651 651 651 651 650 650 649 648 648 649 649 650 651 651 653 655 658 661 663 666 669 670 672 674 677 681 683 686 688 690
691 687 683 679 674 668 664 660 657 654 652 650 649 649 648 649 649 649 648 647 647 647 647 648 649 649 650 652 655 657 660 663 665 666 667 671 674 677 680 683 685 687